Terminal Aerodrome Forecast
Issued by NWS

Home | Current Version | Previous Version | Text Only | Print | Product List | Glossary On
Versions: 1 2 3 4 5 6 7 8 9 10 11 12 13 14 15 16 17 18 19 20 21 22 23 24 25 26
000
FTUS42 KRAH 311129
TAFINT
TAF
KINT 311129Z 3112/0112 13004KT P6SM FEW070 BKN200
     FM311600 22005KT P6SM BKN045 OVC200
      TEMPO 3118/3122 6SM -SHRA BKN035
     FM010300 VRB03KT P6SM VCSH OVC060
     FM010600 VRB03KT 6SM -SHRA BR OVC035=

USA.gov is the U.S. government's official web portal to all federal, state and local government web resources and services.